DW8749 Weather Reports


Display with metric or nautical units.
time (UTC)temp
F
wind
direction
speed
MPH
gust
MPH
rain 1hr
in
rain 24hr
in
rain mn
in
humidity
%
barometer
mb
20260508091007 55 302 3.0 5.0 0.00 0.00 0.00 53 1009.2
20260508090510 55 305 2.0 4.0 0.00 0.00 0.00 53 1009.2
20260508090025 55 294 2.0 4.0 0.00 0.00 0.00 52 1009.2
20260508085507 55 270 2.0 5.0 0.00 0.00 0.00 53 1009.2
20260508085010 55 291 2.0 5.0 0.00 0.00 0.00 53 1009.2
20260508084526 55 286 2.0 5.0 0.00 0.00 0.00 53 1009.2
20260508084011 55 305 3.0 5.0 0.00 0.00 0.00 52 1009.3
20260508083509 56 282 3.0 4.0 0.00 0.00 0.00 52 1009.3
20260508083012 56 300 2.0 3.0 0.00 0.00 0.00 51 1009.2
20260508082509 57 284 1.0 3.0 0.00 0.00 0.00 49 1009.1
20260508082009 57 284 1.0 4.0 0.00 0.00 0.00 49 1009.2
20260508081516 57 272 2.0 4.0 0.00 0.00 0.00 48 1009.2
20260508081007 57 257 2.0 5.0 0.00 0.00 0.00 48 1009.2
20260508080510 58 238 1.0 5.0 0.00 0.00 0.00 47 1009.2
20260508080021 58 274 1.0 7.0 0.00 0.00 0.00 47 1009.2
20260508075510 58 209 2.0 7.0 0.00 0.00 0.00 47 1009.2
20260508075015 58 209 2.0 7.0 0.00 0.00 0.00 47 1009.2
20260508074533 58 234 2.0 7.0 0.00 0.00 0.00 47 1009.3
20260508074010 58 249 1.0 4.0 0.00 0.00 0.00 46 1009.4
20260508073504 59 286 1.0 6.0 0.00 0.00 0.00 46 1009.5
20260508073016 59 303 3.0 6.0 0.00 0.00 0.00 45 1009.4
20260508072503 60 273 2.0 6.0 0.00 0.00 0.00 44 1009.5
20260508072010 60 292 1.0 8.0 0.00 0.00 0.00 43 1009.5
20260508071520 60 232 1.0 8.0 0.00 0.00 0.00 43 1009.4
20260508071006 60 233 2.0 7.0 0.00 0.00 0.00 43 1009.4
20260508070509 61 184 3.0 11.0 0.00 0.00 0.00 43 1009.4
20260508070024 61 221 3.0 13.0 0.00 0.00 0.00 42 1009.3
20260508065511 61 236 6.0 13.0 0.00 0.00 0.00 42 1009.3
20260508065009 61 200 4.0 12.0 0.00 0.00 0.00 42 1009.3
20260508064529 61 218 4.0 12.0 0.00 0.00 0.00 42 1009.3
20260508064011 62 198 4.0 8.0 0.00 0.00 0.00 41 1009.2
20260508063503 62 211 4.0 12.0 0.00 0.00 0.00 41 1009.2
20260508063016 62 236 6.0 12.0 0.00 0.00 0.00 41 1009.2
20260508062507 62 218 6.0 15.0 0.00 0.00 0.00 40 1009.1
20260508062010 63 194 6.0 15.0 0.00 0.00 0.00 40 1009.1
20260508061522 63 213 6.0 11.0 0.00 0.00 0.00 39 1009.2
20260508061009 63 246 4.0 10.0 0.00 0.00 0.00 39 1009.2
20260508060511 63 210 5.0 13.0 0.00 0.00 0.00 39 1009.2
20260508060028 63 246 5.0 13.0 0.00 0.00 0.00 38 1009.2
20260508055511 63 221 4.0 17.0 0.00 0.00 0.00 38 1009.3
20260508055008 63 202 7.0 17.0 0.00 0.00 0.00 38 1009.3
20260508054529 63 200 5.0 13.0 0.00 0.00 0.00 38 1009.3
20260508054005 63 213 5.0 11.0 0.00 0.00 0.00 37 1009.4
20260508053506 63 251 4.0 11.0 0.00 0.00 0.00 37 1009.3
20260508053032 63 231 5.0 11.0 0.00 0.00 0.00 37 1009.4
20260508052513 64 258 5.0 10.0 0.00 0.00 0.00 37 1009.4
20260508052007 64 244 3.0 9.0 0.00 0.00 0.00 36 1009.4
20260508051524 64 213 4.0 11.0 0.00 0.00 0.00 35 1009.4
20260508051010 64 202 4.0 11.0 0.00 0.00 0.00 35 1009.4
20260508050508 64 227 4.0 9.0 0.00 0.00 0.00 35 1009.4
20260508050010 64 239 3.0 9.0 0.00 0.00 0.00 34 1009.4
20260508045505 64 241 4.0 10.0 0.00 0.00 0.00 34 1009.4
20260508045005 65 194 5.0 10.0 0.00 0.00 0.00 34 1009.4
20260508044516 65 236 5.0 9.0 0.00 0.00 0.00 34 1009.4
20260508044007 65 205 4.0 9.0 0.00 0.00 0.00 34 1009.4
20260508043507 65 197 4.0 9.0 0.00 0.00 0.00 35 1009.4
20260508043023 65 212 2.0 8.0 0.00 0.00 0.00 35 1009.5
20260508042504 65 217 2.0 8.0 0.00 0.00 0.00 34 1009.5
20260508042004 65 230 3.0 12.0 0.00 0.00 0.00 34 1009.5
20260508041505 65 205 5.0 13.0 0.00 0.00 0.00 34 1009.6
20260508041004 65 211 6.0 13.0 0.00 0.00 0.00 34 1009.7
20260508040507 65 195 5.0 11.0 0.00 0.00 0.00 35 1009.8
20260508040010 65 194 5.0 9.0 0.00 0.00 0.00 36 1009.8
20260508035505 64 213 4.0 8.0 0.00 0.00 0.00 36 1009.8
20260508035005 64 206 5.0 9.0 0.00 0.00 0.00 37 1009.9
20260508034514 64 206 5.0 9.0 0.00 0.00 0.00 37 1009.8
20260508034008 64 217 4.0 9.0 0.00 0.00 0.00 37 1009.8
20260508033506 64 200 4.0 9.0 0.00 0.00 0.00 37 1009.8
20260508033003 65 185 4.0 10.0 0.00 0.00 0.00 36 1009.8
20260508032503 65 242 4.0 12.0 0.00 0.00 0.00 36 1009.9
20260508032005 65 226 5.0 11.0 0.00 0.00 0.00 35 1009.9
20260508031503 66 190 5.0 9.0 0.00 0.00 0.00 35 1009.8
20260508031003 66 194 3.0 9.0 0.00 0.00 0.00 35 1009.8
20260508030505 66 217 4.0 9.0 0.00 0.00 0.00 35 1009.7
20260508030022 66 202 3.0 7.0 0.00 0.00 0.00 34 1009.7
20260508025506 67 194 2.0 5.0 0.00 0.00 0.00 34 1009.5
20260508025008 67 212 2.0 7.0 0.00 0.00 0.00 33 1009.5
20260508024516 67 205 3.0 7.0 0.00 0.00 0.00 33 1009.5
20260508024008 68 186 2.0 7.0 0.00 0.00 0.00 32 1009.4
20260508023507 68 207 3.0 6.0 0.00 0.00 0.00 32 1009.3
20260508023004 68 212 3.0 6.0 0.00 0.00 0.00 32 1009.3
20260508022503 69 207 3.0 6.0 0.00 0.00 0.00 31 1009.4
20260508022003 69 226 3.0 6.0 0.00 0.00 0.00 31 1009.3
20260508021512 70 211 3.0 5.0 0.00 0.00 0.00 30 1009.3
20260508021004 70 189 2.0 5.0 0.00 0.00 0.00 30 1009.2
20260508020507 70 198 2.0 5.0 0.00 0.00 0.00 30 1009.1
20260508020023 71 193 2.0 5.0 0.00 0.00 0.00 29 1009.1
20260508015506 71 211 2.0 5.0 0.00 0.00 0.00 29 1009.0
20260508015009 72 204 1.0 5.0 0.00 0.00 0.00 29 1009.0
20260508014520 72 219 1.0 3.0 0.00 0.00 0.00 28 1009.0
20260508014007 72 209 1.0 4.0 0.00 0.00 0.00 28 1008.9
20260508013506 73 233 1.0 4.0 0.00 0.00 0.00 28 1008.9
20260508013005 73 219 1.0 3.0 0.00 0.00 0.00 27 1008.8
20260508012504 74 201 1.0 5.0 0.00 0.00 0.00 27 1008.7
20260508012003 74 223 1.0 4.0 0.00 0.00 0.00 26 1008.8
20260508011512 75 200 2.0 5.0 0.00 0.00 0.00 26 1008.7
20260508011007 75 238 2.0 7.0 0.00 0.00 0.00 26 1008.7
20260508010506 75 209 2.0 7.0 0.00 0.00 0.00 25 1008.7
20260508010018 76 234 3.0 6.0 0.00 0.00 0.00 25 1008.7
20260508005507 76 228 1.0 8.0 0.00 0.00 0.00 25 1008.6
20260508005011 76 249 4.0 8.0 0.00 0.00 0.00 24 1008.6
20260508004524 77 214 3.0 8.0 0.00 0.00 0.00 23 1008.7
20260508004003 77 262 2.0 10.0 0.00 0.00 0.00 23 1008.7
20260508003502 77 264 2.0 12.0 0.00 0.00 0.00 23 1008.7
20260508003006 77 239 4.0 12.0 0.00 0.00 0.00 22 1008.7
20260508002502 78 252 4.0 11.0 0.00 0.00 0.00 22 1008.8
20260508002008 78 224 2.0 8.0 0.00 0.00 0.00 23 1008.7
20260508001513 78 305 2.0 11.0 0.00 0.00 0.00 22 1008.7
20260508001007 78 242 5.0 11.0 0.00 0.00 0.00 22 1008.7
20260508000507 78 266 6.0 11.0 0.00 0.00 0.00 22 1008.7
20260508000021 78 280 3.0 10.0 0.00 0.00 0.00 22 1008.7
20260507235507 78 305 3.0 14.0 0.00 0.00 0.00 22 1008.9
20260507235010 79 302 5.0 14.0 0.00 0.00 0.00 22 1008.8
20260507234524 79 284 4.0 15.0 0.00 0.00 0.00 21 1008.8
20260507234004 79 248 7.0 15.0 0.00 0.00 0.00 21 1008.8
20260507233504 79 244 6.0 14.0 0.00 0.00 0.00 21 1008.8
20260507233023 80 229 3.0 13.0 0.00 0.00 0.00 20 1008.9
20260507232507 80 273 6.0 13.0 0.00 0.00 0.00 20 1008.9
20260507232005 81 247 6.0 14.0 0.00 0.00 0.00 20 1008.9
20260507231517 81 234 5.0 14.0 0.00 0.00 0.00 20 1008.9
20260507231006 82 242 5.0 11.0 0.00 0.00 0.00 20 1008.9
20260507230506 81 268 4.0 13.0 0.00 0.00 0.00 21 1009.0
20260507230021 81 298 7.0 16.0 0.00 0.00 0.00 20 1009.0
20260507225508 81 267 5.0 16.0 0.00 0.00 0.00 21 1009.0
20260507225011 81 204 3.0 15.0 0.00 0.00 0.00 20 1009.1
20260507224505 81 313 5.0 16.0 0.00 0.00 0.00 21 1009.1
20260507224008 81 282 10.0 16.0 0.00 0.00 0.00 20 1009.0
20260507223504 81 298 7.0 14.0 0.00 0.00 0.00 20 1009.1
20260507223012 81 303 5.0 14.0 0.00 0.00 0.00 21 1009.1
20260507222511 81 307 8.0 15.0 0.00 0.00 0.00 19 1009.1
20260507222008 81 292 7.0 15.0 0.00 0.00 0.00 21 1009.2
20260507221524 81 286 6.0 13.0 0.00 0.00 0.00 20 1009.2
20260507221009 81 173 7.0 13.0 0.00 0.00 0.00 20 1009.3
20260507220507 81 229 7.0 18.0 0.00 0.00 0.00 20 1009.3
20260507220027 81 244 6.0 18.0 0.00 0.00 0.00 21 1009.3
20260507215512 82 286 8.0 22.0 0.00 0.00 0.00 20 1009.4
20260507215008 82 313 12.0 22.0 0.00 0.00 0.00 20 1009.5
20260507214507 82 244 6.0 18.0 0.00 0.00 0.00 20 1009.5
20260507214004 82 249 8.0 18.0 0.00 0.00 0.00 20 1009.7
20260507213509 82 284 8.0 15.0 0.00 0.00 0.00 21 1009.7
20260507213022 82 286 3.0 14.0 0.00 0.00 0.00 21 1009.8
20260507212504 81 242 7.0 14.0 0.00 0.00 0.00 21 1009.8
20260507212008 81 271 6.0 12.0 0.00 0.00 0.00 21 1010.0
20260507211523 81 261 7.0 21.0 0.00 0.00 0.00 22 1010.1
20260507211007 81 257 6.0 21.0 0.00 0.00 0.00 22 1010.1
20260507210513 81 259 2.0 13.0 0.00 0.00 0.00 23 1010.1
20260507210024 81 244 4.0 17.0 0.00 0.00 0.00 22 1010.3
20260507205513 80 275 9.0 17.0 0.00 0.00 0.00 21 1010.4
20260507205006 80 248 6.0 18.0 0.00 0.00 0.00 21 1010.5
20260507204514 81 292 7.0 18.0 0.00 0.00 0.00 21 1010.6
20260507204007 80 306 10.0 17.0 0.00 0.00 0.00 21 1010.5
20260507203508 80 289 6.0 17.0 0.00 0.00 0.00 22 1010.7
20260507203020 80 200 6.0 13.0 0.00 0.00 0.00 22 1010.7
20260507202509 80 219 6.0 14.0 0.00 0.00 0.00 21 1011.0
20260507202007 80 234 6.0 16.0 0.00 0.00 0.00 25 1011.1
20260507201525 80 250 7.0 17.0 0.00 0.00 0.00 21 1011.1
20260507201009 79 265 6.0 18.0 0.00 0.00 0.00 23 1011.2
20260507200511 79 271 5.0 18.0 0.00 0.00 0.00 22 1011.2
20260507200025 79 312 8.0 14.0 0.00 0.00 0.00 23 1011.3
20260507195503 79 252 4.0 14.0 0.00 0.00 0.00 24 1011.3
20260507195004 78 238 6.0 14.0 0.00 0.00 0.00 25 1011.3
20260507194512 78 243 8.0 22.0 0.00 0.00 0.00 25 1011.3
20260507194007 78 290 8.0 23.0 0.00 0.00 0.00 24 1011.4
20260507193507 78 287 8.0 23.0 0.00 0.00 0.00 24 1011.4
20260507193028 78 259 5.0 17.0 0.00 0.00 0.00 26 1011.5
20260507192508 77 267 8.0 18.0 0.00 0.00 0.00 23 1011.6
20260507192004 77 261 6.0 18.0 0.00 0.00 0.00 24 1011.7
20260507191504 77 294 7.0 15.0 0.00 0.00 0.00 24 1011.7
20260507191005 77 251 6.0 15.0 0.00 0.00 0.00 24 1011.8
20260507190505 77 306 4.0 14.0 0.00 0.00 0.00 25 1011.9
20260507190010 76 290 7.0 22.0 0.00 0.00 0.00 25 1012.1
20260507185505 76 262 5.0 22.0 0.00 0.00 0.00 24 1012.2
20260507185008 75 226 4.0 19.0 0.00 0.00 0.00 27 1012.3
20260507184517 75 265 8.0 17.0 0.00 0.00 0.00 26 1012.4
20260507184007 75 288 8.0 18.0 0.00 0.00 0.00 27 1012.4
20260507183507 75 257 7.0 18.0 0.00 0.00 0.00 25 1012.5
20260507183036 75 240 6.0 16.0 0.00 0.00 0.00 29 1012.7
20260507182507 74 213 5.0 20.0 0.00 0.00 0.00 30 1012.8
20260507182004 74 247 9.0 19.0 0.00 0.00 0.00 30 1012.7
20260507181506 74 244 6.0 17.0 0.00 0.00 0.00 33 1012.9
20260507181005 73 264 10.0 17.0 0.00 0.00 0.00 33 1013.0
20260507180504 73 257 5.0 16.0 0.00 0.00 0.00 35 1013.1
20260507180022 73 215 6.0 16.0 0.00 0.00 0.00 33 1013.1
20260507175504 72 263 9.0 18.0 0.00 0.00 0.00 33 1013.3
20260507175005 72 262 6.0 18.0 0.00 0.00 0.00 34 1013.3
20260507174522 72 271 7.0 18.0 0.00 0.00 0.00 36 1013.4
20260507174007 71 248 9.0 17.0 0.00 0.00 0.00 35 1013.5
20260507173512 71 223 8.0 17.0 0.00 0.00 0.00 36 1013.6
20260507173035 70 272 7.0 24.0 0.00 0.00 0.00 36 1013.7
20260507172503 70 267 8.0 24.0 0.00 0.00 0.00 37 1013.9
20260507172003 70 253 7.0 17.0 0.00 0.00 0.00 38 1013.8
20260507171512 69 257 6.0 18.0 0.00 0.00 0.00 37 1014.0
20260507171007 69 256 11.0 18.0 0.00 0.00 0.00 38 1014.2
20260507170503 69 211 5.0 20.0 0.00 0.00 0.00 38 1014.3
20260507170015 69 229 7.0 20.0 0.00 0.00 0.00 37 1014.3
20260507165509 69 203 7.0 16.0 0.00 0.00 0.00 38 1014.3
20260507165007 68 266 8.0 18.0 0.00 0.00 0.00 39 1014.4
20260507164529 68 188 9.0 18.0 0.00 0.00 0.00 39 1014.5
20260507164010 67 234 4.0 16.0 0.00 0.00 0.00 41 1014.5
20260507163509 67 276 8.0 15.0 0.00 0.00 0.00 40 1014.5
20260507163026 66 261 5.0 15.0 0.00 0.00 0.00 43 1014.7
20260507162510 66 259 7.0 15.0 0.00 0.00 0.00 43 1014.9
20260507162005 65 209 5.0 19.0 0.00 0.00 0.00 45 1014.9
20260507161512 64 226 7.0 19.0 0.00 0.00 0.00 46 1015.0
20260507161007 64 254 7.0 15.0 0.00 0.00 0.00 46 1014.9
20260507160508 63 295 6.0 14.0 0.00 0.00 0.00 45 1015.0
20260507160020 63 297 5.0 16.0 0.00 0.00 0.00 47 1015.0
20260507155508 63 276 6.0 16.0 0.00 0.00 0.00 48 1015.1
20260507155007 62 213 4.0 14.0 0.00 0.00 0.00 49 1015.1
20260507154525 62 231 5.0 14.0 0.00 0.00 0.00 50 1015.1
20260507154009 61 262 5.0 17.0 0.00 0.00 0.00 50 1015.2
20260507153507 60 212 7.0 18.0 0.00 0.00 0.00 50 1015.4
20260507153008 60 220 7.0 19.0 0.00 0.00 0.00 51 1015.5
20260507152507 60 252 7.0 20.0 0.00 0.00 0.00 51 1015.5
20260507152007 59 170 8.0 20.0 0.00 0.00 0.00 52 1015.6
20260507151514 58 249 5.0 15.0 0.00 0.00 0.00 55 1015.6
20260507151005 58 277 4.0 17.0 0.00 0.01 0.00 56 1015.7
20260507150505 57 251 5.0 17.0 0.00 0.01 0.00 58 1015.7
20260507150020 57 256 6.0 15.0 0.00 0.01 0.00 59 1015.8
20260507145512 56 284 4.0 13.0 0.00 0.01 0.00 60 1015.7
20260507145009 55 285 6.0 12.0 0.00 0.01 0.00 62 1015.8
20260507144531 54 263 5.0 12.0 0.00 0.01 0.00 64 1015.9
20260507144011 53 260 4.0 14.0 0.00 0.01 0.00 66 1016.0
20260507143512 52 260 6.0 17.0 0.00 0.01 0.00 69 1016.0
20260507143019 51 301 5.0 17.0 0.00 0.01 0.00 69 1016.1
20260507142505 51 256 8.0 17.0 0.00 0.01 0.00 69 1016.1
20260507142008 51 256 7.0 15.0 0.00 0.01 0.00 71 1016.1
20260507141517 50 240 6.0 13.0 0.00 0.01 0.00 73 1016.0
20260507141012 50 261 5.0 17.0 0.00 0.01 0.00 74 1016.0
20260507140510 49 254 7.0 17.0 0.00 0.01 0.00 74 1016.1
20260507140023 49 261 6.0 13.0 0.00 0.01 0.00 75 1016.2
20260507135509 48 211 4.0 17.0 0.00 0.01 0.00 77 1016.2
20260507135010 48 214 7.0 17.0 0.00 0.01 0.00 77 1016.3
20260507134528 47 223 4.0 17.0 0.00 0.01 0.00 78 1016.4
20260507134008 47 330 8.0 15.0 0.00 0.01 0.00 79 1016.4
20260507133503 46 234 7.0 14.0 0.00 0.01 0.00 80 1016.6
20260507133016 46 250 4.0 14.0 0.00 0.01 0.00 80 1016.8
20260507132511 45 243 4.0 12.0 0.00 0.01 0.00 81 1016.8
20260507132009 45 240 5.0 12.0 0.00 0.01 0.00 81 1017.0
20260507131529 44 242 6.0 11.0 0.00 0.02 0.00 82 1017.0
20260507131008 44 302 6.0 12.0 0.00 0.02 0.00 83 1016.8
20260507130513 43 266 4.0 12.0 0.00 0.02 0.00 84 1016.6
20260507130027 43 261 4.0 15.0 0.00 0.02 0.00 85 1016.7
20260507125509 42 242 4.0 15.0 0.00 0.02 0.00 86 1016.6
20260507125011 41 202 6.0 15.0 0.00 0.02 0.00 86 1016.6
20260507124525 41 306 5.0 8.0 0.00 0.02 0.00 88 1016.7
20260507124009 40 223 2.0 9.0 0.00 0.02 0.00 88 1016.7
20260507123506 40 208 2.0 9.0 0.00 0.02 0.00 89 1016.7
20260507123016 39 250 4.0 9.0 0.00 0.02 0.00 89 1016.7
20260507122507 39 196 2.0 7.0 0.00 0.02 0.00 89 1016.7
20260507122008 39 252 3.0 8.0 0.00 0.02 0.00 89 1016.7
20260507121524 39 269 3.0 8.0 0.00 0.03 0.00 89 1016.8
20260507121007 38 267 2.0 7.0 0.00 0.03 0.00 89 1016.8
20260507120508 38 264 2.0 7.0 0.00 0.03 0.00 89 1016.8
20260507120039 38 256 3.0 7.0 0.00 0.03 0.00 88 1016.7
20260507115507 38 304 2.0 6.0 0.00 0.04 0.00 88 1016.7
20260507115011 38 226 2.0 6.0 0.00 0.04 0.00 88 1016.7
20260507114527 38 273 2.0 7.0 0.00 0.05 0.00 88 1016.6
20260507114006 38 229 1.0 7.0 0.00 0.05 0.00 88 1016.7
20260507113511 38 218 1.0 4.0 0.00 0.05 0.00 89 1016.8
20260507113035 38 223 1.0 9.0 0.00 0.06 0.00 88 1016.7
20260507112512 38 196 2.0 8.0 0.00 0.06 0.00 89 1016.6
20260507112016 38 240 3.0 6.0 0.00 0.06 0.00 88 1016.9
20260507111525 38 248 2.0 8.0 0.00 0.06 0.00 88 1017.0
20260507111010 38 258 4.0 8.0 0.00 0.06 0.00 88 1017.0
20260507110507 38 259 3.0 8.0 0.00 0.06 0.00 88 1017.0
20260507110031 39 231 3.0 7.0 0.00 0.06 0.00 88 1017.0
20260507105509 39 245 2.0 9.0 0.00 0.06 0.00 88 1017.1
20260507105008 39 252 3.0 9.0 0.00 0.06 0.00 88 1017.1
20260507104528 39 246 2.0 8.0 0.00 0.07 0.00 88 1017.1
20260507104005 39 230 3.0 8.0 0.00 0.07 0.00 88 1017.3
20260507103505 39 244 3.0 10.0 0.00 0.07 0.00 88 1017.3
20260507103023 39 219 2.0 10.0 0.00 0.07 0.00 88 1017.4
20260507102502 39 281 3.0 8.0 0.00 0.07 0.00 88 1017.3
20260507102006 39 246 2.0 8.0 0.00 0.07 0.00 88 1017.3
20260507101507 39 265 3.0 7.0 0.00 0.07 0.00 88 1017.4
20260507101004 39 224 3.0 8.0 0.00 0.07 0.00 88 1017.4
20260507100504 39 243 2.0 8.0 0.00 0.07 0.00 88 1017.4
20260507100015 39 239 3.0 9.0 0.00 0.07 0.00 88 1017.4
20260507095505 39 238 3.0 9.0 0.00 0.07 0.00 88 1017.5
20260507095009 40 252 4.0 9.0 0.00 0.08 0.00 88 1017.5
20260507094518 40 224 3.0 5.0 0.00 0.08 0.00 88 1017.5
20260507094007 40 236 2.0 8.0 0.00 0.08 0.00 88 1017.5
20260507093507 40 232 3.0 8.0 0.00 0.09 0.00 88 1017.4
20260507093022 40 227 1.0 7.0 0.00 0.09 0.00 88 1017.4
20260507092503 40 250 2.0 8.0 0.00 0.10 0.00 88 1017.5
20260507092004 40 260 2.0 8.0 0.00 0.10 0.00 87 1017.5
20260507091508 40 265 1.0 6.0 0.00 0.10 0.00 87 1017.6